| time (UTC) | temp F | wind direction | speed MPH | gust MPH | rain 1hr in | rain 24hr in | rain mn in | humidity % | barometer mb |
| 20260507224601 | 53 | 349 | 4.0 | 10.0 | 0.00 | 0.01 | 0.01 | 48 | 1009.0 |
| 20260507223059 | 53 | 11 | 0.0 | 5.0 | 0.00 | 0.01 | 0.01 | 49 | 1009.0 |
| 20260507221700 | 54 | 337 | 0.0 | 5.0 | 0.00 | 0.01 | 0.01 | 47 | 1009.0 |
| 20260507220100 | 53 | 315 | 0.0 | 11.0 | 0.00 | 0.01 | 0.01 | 47 | 1009.0 |
| 20260507214559 | 54 | 360 | 1.0 | 8.0 | 0.00 | 0.01 | 0.01 | 47 | 1009.0 |
| 20260507213106 | 55 | 330 | 6.0 | 9.0 | 0.00 | 0.01 | 0.01 | 45 | 1009.0 |
| 20260507211659 | 55 | 5 | 0.0 | 7.0 | 0.00 | 0.01 | 0.01 | 46 | 1008.9 |
| 20260507210059 | 55 | 360 | 4.0 | 7.0 | 0.00 | 0.01 | 0.01 | 45 | 1008.9 |
| 20260507204602 | 55 | 309 | 4.0 | 9.0 | 0.00 | 0.01 | 0.01 | 42 | 1008.9 |
| 20260507203057 | 56 | 9 | 0.0 | 7.0 | 0.00 | 0.01 | 0.01 | 44 | 1009.0 |
| 20260507201656 | 54 | 355 | 3.0 | 9.0 | 0.00 | 0.01 | 0.01 | 46 | 1009.1 |
| 20260507200057 | 54 | 333 | 8.0 | 16.0 | 0.00 | 0.01 | 0.01 | 45 | 1009.3 |
| 20260507194602 | 55 | 315 | 4.0 | 10.0 | 0.00 | 0.01 | 0.01 | 42 | 1009.3 |
| 20260507193055 | 55 | 339 | 5.0 | 10.0 | 0.00 | 0.01 | 0.01 | 44 | 1009.4 |
| 20260507191655 | 54 | 355 | 6.0 | 11.0 | 0.00 | 0.01 | 0.01 | 44 | 1009.6 |
| 20260507190052 | 55 | 334 | 6.0 | 12.0 | 0.00 | 0.01 | 0.01 | 44 | 1009.5 |
| 20260507184558 | 54 | 329 | 5.0 | 12.0 | 0.00 | 0.01 | 0.01 | 46 | 1009.7 |
| 20260507183049 | 55 | 311 | 6.0 | 14.0 | 0.00 | 0.01 | 0.01 | 44 | 1009.9 |
| 20260507181650 | 57 | 302 | 7.0 | 14.0 | 0.00 | 0.01 | 0.01 | 41 | 1010.0 |
| 20260507180046 | 54 | 312 | 1.0 | 13.0 | 0.00 | 0.04 | 0.01 | 45 | 1010.1 |
| 20260507174547 | 54 | 297 | 4.0 | 12.0 | 0.00 | 0.04 | 0.01 | 43 | 1010.2 |
| 20260507173044 | 54 | 291 | 7.0 | 14.0 | 0.00 | 0.04 | 0.01 | 42 | 1010.4 |
| 20260507171643 | 55 | 307 | 8.0 | 14.0 | 0.00 | 0.04 | 0.01 | 43 | 1010.6 |
| 20260507170042 | 52 | 298 | 5.0 | 12.0 | 0.00 | 0.12 | 0.01 | 45 | 1010.7 |
| 20260507164555 | 53 | 330 | 8.0 | 14.0 | 0.00 | 0.12 | 0.01 | 43 | 1010.8 |
| 20260507163039 | 53 | 319 | 8.0 | 12.0 | 0.00 | 0.12 | 0.01 | 46 | 1011.0 |
| 20260507161638 | 51 | 317 | 5.0 | 11.0 | 0.00 | 0.12 | 0.01 | 48 | 1011.3 |
| 20260507160038 | 52 | 294 | 8.0 | 14.0 | 0.00 | 0.12 | 0.01 | 46 | 1011.3 |
| 20260507154537 | 54 | 306 | 8.0 | 17.0 | 0.00 | 0.12 | 0.01 | 46 | 1011.3 |
| 20260507153032 | 52 | 304 | 2.0 | 13.0 | 0.00 | 0.12 | 0.01 | 49 | 1011.5 |
| 20260507151630 | 51 | 323 | 3.0 | 12.0 | 0.00 | 0.12 | 0.01 | 47 | 1011.6 |
| 20260507150029 | 51 | 257 | 0.0 | 5.0 | 0.00 | 0.12 | 0.01 | 54 | 1011.9 |
| 20260507144528 | 51 | 317 | 3.0 | 10.0 | 0.00 | 0.12 | 0.01 | 51 | 1011.9 |
| 20260507143043 | 50 | 297 | 3.0 | 16.0 | 0.00 | 0.12 | 0.01 | 55 | 1012.2 |
| 20260507141626 | 50 | 309 | 4.0 | 8.0 | 0.00 | 0.12 | 0.01 | 55 | 1012.2 |
| 20260507140025 | 50 | 275 | 0.0 | 6.0 | 0.00 | 0.14 | 0.01 | 59 | 1012.2 |
| 20260507134523 | 50 | 227 | 2.0 | 7.0 | 0.00 | 0.14 | 0.01 | 60 | 1012.3 |
| 20260507133021 | 50 | 295 | 2.0 | 5.0 | 0.00 | 0.14 | 0.01 | 64 | 1012.5 |
| 20260507131619 | 48 | 302 | 0.0 | 4.0 | 0.00 | 0.14 | 0.01 | 70 | 1012.6 |
| 20260507130031 | 47 | 301 | 1.0 | 5.0 | 0.00 | 0.22 | 0.01 | 68 | 1012.5 |
| 20260507124518 | 47 | 295 | 0.0 | 4.0 | 0.00 | 0.22 | 0.01 | 72 | 1012.4 |
| 20260507123015 | 47 | 225 | 0.0 | 0.0 | 0.00 | 0.22 | 0.01 | 78 | 1012.5 |
| 20260507121612 | 45 | 221 | 0.0 | 0.0 | 0.01 | 0.22 | 0.01 | 79 | 1012.6 |
| 20260507120008 | 44 | 220 | 0.0 | 0.0 | 0.01 | 0.28 | 0.01 | 82 | 1012.6 |
| 20260507114503 | 42 | 220 | 0.0 | 0.0 | 0.01 | 0.28 | 0.01 | 86 | 1012.4 |
| 20260507113101 | 41 | 220 | 0.0 | 0.0 | 0.01 | 0.28 | 0.01 | 87 | 1012.5 |
| 20260507111558 | 39 | 220 | 0.0 | 0.0 | 0.00 | 0.27 | 0.00 | 92 | 1012.7 |
| 20260507110056 | 37 | 220 | 0.0 | 0.0 | 0.00 | 0.30 | 0.00 | 92 | 1012.5 |
| 20260507104558 | 36 | 220 | 0.0 | 0.0 | 0.00 | 0.30 | 0.00 | 91 | 1012.4 |
| 20260507103052 | 36 | 220 | 0.0 | 0.0 | 0.00 | 0.30 | 0.00 | 91 | 1012.2 |
| 20260507101551 | 36 | 220 | 0.0 | 0.0 | 0.00 | 0.30 | 0.00 | 91 | 1012.0 |
| 20260507100056 | 36 | 220 | 0.0 | 0.0 | 0.00 | 0.35 | 0.00 | 91 | 1012.0 |
| 20260507094548 | 36 | 291 | 0.0 | 0.0 | 0.00 | 0.35 | 0.00 | 90 | 1011.8 |
| 20260507093044 | 37 | 291 | 0.0 | 0.0 | 0.00 | 0.35 | 0.00 | 90 | 1011.7 |
| 20260507091544 | 37 | 291 | 0.0 | 0.0 | 0.00 | 0.35 | 0.00 | 89 | 1011.9 |
| 20260507090049 | 38 | 291 | 0.0 | 0.0 | 0.00 | 0.39 | 0.35 | 89 | 1012.0 |
| 20260507084548 | 38 | 291 | 0.0 | 0.0 | 0.00 | 0.39 | 0.35 | 88 | 1012.0 |
| 20260507083037 | 39 | 291 | 0.0 | 0.0 | 0.00 | 0.39 | 0.35 | 88 | 1012.0 |
| 20260507081536 | 39 | 291 | 0.0 | 0.0 | 0.00 | 0.39 | 0.35 | 85 | 1012.0 |
| 20260507080035 | 39 | 291 | 0.0 | 0.0 | 0.00 | 0.44 | 0.35 | 84 | 1011.9 |
| 20260507074532 | 41 | 291 | 0.0 | 0.0 | 0.00 | 0.44 | 0.35 | 81 | 1011.9 |
| 20260507073033 | 41 | 291 | 0.0 | 0.0 | 0.00 | 0.44 | 0.35 | 80 | 1011.9 |
| 20260507071535 | 41 | 291 | 0.0 | 0.0 | 0.00 | 0.44 | 0.35 | 81 | 1011.8 |
| 20260507070033 | 41 | 291 | 0.0 | 3.0 | 0.00 | 0.44 | 0.35 | 81 | 1011.6 |
| 20260507064544 | 41 | 291 | 0.0 | 0.0 | 0.00 | 0.44 | 0.35 | 81 | 1011.7 |
| 20260507063030 | 42 | 291 | 0.0 | 0.0 | 0.00 | 0.44 | 0.35 | 80 | 1012.0 |
| 20260507061529 | 42 | 291 | 0.0 | 0.0 | 0.00 | 0.44 | 0.35 | 79 | 1012.0 |
| 20260507060027 | 42 | 291 | 0.0 | 4.0 | 0.00 | 0.44 | 0.35 | 80 | 1011.7 |
| 20260507054525 | 42 | 291 | 0.0 | 0.0 | 0.00 | 0.44 | 0.35 | 82 | 1012.0 |
| 20260507053025 | 42 | 292 | 0.0 | 4.0 | 0.00 | 0.44 | 0.35 | 83 | 1011.9 |
| 20260507051524 | 42 | 292 | 0.0 | 1.0 | 0.00 | 0.44 | 0.35 | 84 | 1011.5 |
| 20260507050035 | 43 | 292 | 0.0 | 3.0 | 0.00 | 0.44 | 0.35 | 84 | 1011.8 |
| 20260507044520 | 43 | 292 | 2.0 | 7.0 | 0.00 | 0.44 | 0.35 | 86 | 1012.1 |
| 20260507043017 | 44 | 295 | 2.0 | 7.0 | 0.00 | 0.44 | 0.35 | 88 | 1011.9 |
| 20260507041523 | 44 | 290 | 1.0 | 4.0 | 0.00 | 0.44 | 0.35 | 89 | 1011.8 |
| 20260507040011 | 45 | 290 | 0.0 | 0.0 | 0.00 | 0.44 | 0.35 | 88 | 1011.5 |
| 20260507034512 | 45 | 290 | 0.0 | 3.0 | 0.00 | 0.44 | 0.35 | 87 | 1011.2 |
| 20260507033010 | 45 | 289 | 0.0 | 5.0 | 0.00 | 0.44 | 0.35 | 87 | 1011.4 |
| 20260507031510 | 45 | 291 | 0.0 | 4.0 | 0.00 | 0.44 | 0.35 | 88 | 1011.2 |
| 20260507030017 | 45 | 312 | 0.0 | 1.0 | 0.00 | 0.44 | 0.35 | 89 | 1010.9 |
| 20260507024514 | 45 | 315 | 3.0 | 5.0 | 0.00 | 0.44 | 0.35 | 90 | 1011.1 |
| 20260507023007 | 46 | 328 | 0.0 | 0.0 | 0.00 | 0.44 | 0.35 | 91 | 1011.1 |
| 20260507021507 | 46 | 328 | 0.0 | 1.0 | 0.00 | 0.44 | 0.35 | 91 | 1011.0 |
| 20260507020005 | 46 | 328 | 0.0 | 0.0 | 0.00 | 0.44 | 0.35 | 92 | 1011.4 |
| 20260507014511 | 46 | 328 | 0.0 | 0.0 | 0.00 | 0.44 | 0.35 | 92 | 1011.4 |
| 20260507013011 | 46 | 328 | 0.0 | 0.0 | 0.00 | 0.44 | 0.35 | 92 | 1011.2 |
| 20260507011505 | 46 | 328 | 0.0 | 0.0 | 0.00 | 0.44 | 0.35 | 92 | 1011.5 |
| 20260507010007 | 46 | 328 | 0.0 | 0.0 | 0.00 | 0.44 | 0.35 | 92 | 1011.4 |
| 20260507004502 | 46 | 328 | 0.0 | 0.0 | 0.00 | 0.44 | 0.35 | 92 | 1010.8 |
| 20260507003001 | 46 | 328 | 0.0 | 0.0 | 0.00 | 0.44 | 0.35 | 91 | 1010.8 |
| 20260507001611 | 46 | 328 | 0.0 | 0.0 | 0.00 | 0.44 | 0.35 | 91 | 1010.3 |
| 20260507000059 | 47 | 328 | 0.0 | 0.0 | 0.00 | 0.44 | 0.35 | 91 | 1010.1 |
| 20260506234600 | 47 | 328 | 0.0 | 0.0 | 0.00 | 0.44 | 0.35 | 91 | 1010.2 |
| 20260506233059 | 47 | 328 | 0.0 | 0.0 | 0.00 | 0.44 | 0.35 | 91 | 1009.9 |
| 20260506231609 | 47 | 328 | 0.0 | 0.0 | 0.00 | 0.44 | 0.35 | 91 | 1009.8 |
| 20260506230111 | 47 | 328 | 0.0 | 0.0 | 0.00 | 0.44 | 0.35 | 90 | 1009.8 |